Wildwood, NJ

11:23 AM EDT on May 29, 2017 (GMT -0400)
Cape May County

Weather History for KWWD - February, 2013

Change the Weather History Date:

Wednesday, February 27, 2013

  Actual Average Record
Temperature  
Mean Temperature 48 °F -  
Max Temperature 51 °F 45 °F 71 °F (1997)
Min Temperature 44 °F 31 °F 12 °F (2015)
Degree Days  
Heating Degree Days 18    
Moisture  
Dew Point 42 °F    
Average Humidity 79    
Maximum Humidity 94    
Minimum Humidity 58    
Precipitation  
Precipitation 0.01 in - - ()
Sea Level Pressure  
Sea Level Pressure 29.61 in    
Wind  
Wind Speed 9 mph (SW)    
Max Wind Speed 17 mph    
Max Gust Speed 24 mph    
Visibility 8 miles    
Events      
Averages and records for this station are not official NWS values.
T = Trace of Precipitation, MM = Missing Value Source: NWS Daily Summary

Daily Weather History Graph

Daily Weather History Graph

Search for Another Location

Airport or City:

Trip Planner

Search our weather history database for the weather conditions in past years. The results will help you decide how hot, cold, wet, or windy it might be!

Date:

Astronomy

Feb. 27, 2013 Rise Set
Actual Time 6:34 AM EST 5:50 PM EST
Civil Twilight 6:07 AM EST 6:17 PM EST
Nautical Twilight 5:36 AM EST 6:48 PM EST
Astronomical Twilight 5:06 AM EST 7:19 PM EST
Moon 8:07 PM EST (2/27) 7:10 AM EST (2/27)
Length of Visible Light 12h 09m
Length of Day
11h 15m
Waning Gibbous, 96% of the Moon is Illuminated
Feb 27
Waning Gibbous
Mar 4
Last Quarter
Mar 11
New
Mar 19
First Quarter
Mar 27
Full

Hourly Weather History & Observations

Time (EST) Temp. Windchill Dew Point Humidity Pressure Visibility Wind Dir Wind Speed Gust Speed Precip Events Conditions
12:15 AM 48.2 °F - 46.4 °F 93% 29.66 in 8.0 mi ENE 10.4 mph 16.1 mph 0.01 in   Overcast
12:35 AM 48.2 °F - 46.4 °F 93% 29.64 in 4.0 mi ENE 11.5 mph - 0.01 in   Overcast
12:55 AM 48.2 °F - 46.4 °F 93% 29.63 in 5.0 mi ENE 9.2 mph - 0.01 in   Overcast
1:15 AM 51.8 °F - 48.2 °F 88% 29.60 in 10.0 mi East 11.5 mph 20.7 mph N/A   Overcast
1:35 AM 51.8 °F - 48.2 °F 88% 29.60 in 10.0 mi East 6.9 mph - N/A   Overcast
1:55 AM 51.8 °F - 48.2 °F 88% 29.59 in 6.0 mi ESE 11.5 mph 18.4 mph N/A   Overcast
2:15 AM 50.0 °F - 48.2 °F 94% 29.57 in 5.0 mi ESE 11.5 mph 16.1 mph N/A   Overcast
2:35 AM 50.0 °F - 48.2 °F 94% 29.56 in 5.0 mi ESE 8.1 mph - N/A   Overcast
2:55 AM 50.0 °F - 48.2 °F 94% 29.55 in 5.0 mi ESE 10.4 mph - N/A   Overcast
3:15 AM 50.0 °F - 48.2 °F 94% 29.54 in 4.0 mi ESE 10.4 mph - N/A   Overcast
3:35 AM 50.0 °F - 46.4 °F 87% 29.53 in 3.0 mi SE 10.4 mph - N/A   Overcast
3:55 AM 48.2 °F - 46.4 °F 93% 29.52 in 2.5 mi SSE 9.2 mph - N/A   Overcast
4:15 AM 48.2 °F - 46.4 °F 93% 29.51 in 0.8 mi SE 8.1 mph - N/A   Overcast
4:35 AM 48.2 °F - 46.4 °F 93% 29.51 in 0.5 mi South 8.1 mph - N/A   Overcast
4:55 AM 48.2 °F - 46.4 °F 93% 29.51 in 0.5 mi SSE 3.5 mph - N/A   Overcast
5:15 AM 48.2 °F - 46.4 °F 93% 29.51 in 0.2 mi South 4.6 mph - N/A   Overcast
5:35 AM 48.2 °F - 46.4 °F 93% 29.51 in 0.2 mi Calm Calm - N/A   Overcast
6:15 AM 48.2 °F - 46.4 °F 93% 29.50 in 0.2 mi SSW 4.6 mph - N/A   Overcast
6:35 AM 46.4 °F 43.5 °F 44.6 °F 93% 29.51 in 0.2 mi SSW 5.8 mph - N/A   Overcast
6:55 AM 46.4 °F 43.5 °F 44.6 °F 93% 29.51 in 0.2 mi SW 5.8 mph - N/A   Overcast
7:15 AM 46.4 °F 43.5 °F 44.6 °F 93% 29.51 in 0.2 mi SSW 5.8 mph - N/A   Overcast
7:55 AM 50.0 °F - 48.2 °F 94% 29.54 in 10.0 mi SW 11.5 mph - N/A   Overcast
8:15 AM 48.2 °F - 46.4 °F 93% 29.54 in 10.0 mi SW 10.4 mph - N/A   Overcast
8:35 AM 50.0 °F - 48.2 °F 94% 29.55 in 10.0 mi SW 17.3 mph 23.0 mph N/A   Overcast
8:55 AM 48.2 °F - 46.4 °F 93% 29.56 in 10.0 mi SW 13.8 mph 21.9 mph N/A   Overcast
9:15 AM 50.0 °F - 46.4 °F 87% 29.56 in 10.0 mi WSW 11.5 mph - N/A   Overcast
9:35 AM 50.0 °F - 46.4 °F 87% 29.57 in 10.0 mi SW 16.1 mph 23.0 mph N/A   Overcast
10:15 AM 46.4 °F 40.1 °F 42.8 °F 87% 29.58 in 10.0 mi WSW 15.0 mph 24.2 mph N/A   Overcast
10:35 AM 46.4 °F 40.1 °F 42.8 °F 87% 29.60 in 10.0 mi WSW 15.0 mph 21.9 mph N/A   Overcast
10:55 AM 46.4 °F 40.4 °F 42.8 °F 87% 29.60 in 10.0 mi WSW 13.8 mph 24.2 mph N/A   Overcast
11:15 AM 48.2 °F - 42.8 °F 82% 29.61 in 10.0 mi WSW 12.7 mph - N/A   Overcast
11:55 AM 48.2 °F - 42.8 °F 82% 29.61 in 10.0 mi WSW 15.0 mph 20.7 mph N/A   Clear
12:15 PM 48.2 °F - 41.0 °F 76% 29.61 in 10.0 mi West 16.1 mph 21.9 mph N/A   Clear
12:35 PM 50.0 °F - 42.8 °F 76% 29.60 in 10.0 mi West 13.8 mph - N/A   Clear
12:55 PM 51.8 °F - 41.0 °F 67% 29.61 in 10.0 mi West 13.8 mph 21.9 mph N/A   Clear
1:15 PM 51.8 °F - 41.0 °F 67% 29.61 in 10.0 mi West 12.7 mph 21.9 mph N/A   Clear
1:35 PM 51.8 °F - 41.0 °F 67% 29.61 in 10.0 mi West 13.8 mph 19.6 mph N/A   Scattered Clouds
1:55 PM 51.8 °F - 39.2 °F 62% 29.62 in 10.0 mi West 11.5 mph 17.3 mph N/A   Mostly Cloudy
2:15 PM 51.8 °F - 39.2 °F 62% 29.62 in 10.0 mi West 11.5 mph - N/A   Mostly Cloudy
2:35 PM 51.8 °F - 39.2 °F 62% 29.62 in 10.0 mi West 13.8 mph - N/A   Partly Cloudy
3:35 PM 51.8 °F - 39.2 °F 62% 29.64 in 10.0 mi West 9.2 mph - N/A   Mostly Cloudy
3:55 PM 51.8 °F - 39.2 °F 62% 29.64 in 10.0 mi West 11.5 mph - N/A   Mostly Cloudy
4:15 PM 50.0 °F - 37.4 °F 62% 29.65 in 10.0 mi West 9.2 mph - N/A   Mostly Cloudy
4:35 PM 50.0 °F - 37.4 °F 62% 29.65 in 10.0 mi West 9.2 mph - N/A   Overcast
4:55 PM 51.8 °F - 37.4 °F 58% 29.65 in 10.0 mi West 9.2 mph - N/A   Mostly Cloudy
5:15 PM 51.8 °F - 37.4 °F 58% 29.65 in 10.0 mi West 6.9 mph - N/A   Clear
5:35 PM 50.0 °F - 35.6 °F 58% 29.66 in 10.0 mi WSW 4.6 mph - N/A   Clear
5:55 PM 48.2 °F - 35.6 °F 62% 29.67 in 10.0 mi WSW 5.8 mph - N/A   Clear
6:15 PM 46.4 °F 44.3 °F 35.6 °F 66% 29.68 in 10.0 mi SW 4.6 mph - N/A   Scattered Clouds
6:35 PM 46.4 °F 45.2 °F 35.6 °F 66% 29.68 in 10.0 mi SW 3.5 mph - N/A   Overcast
6:55 PM 48.2 °F - 35.6 °F 62% 29.69 in 10.0 mi SW 3.5 mph - N/A   Overcast
7:15 PM 48.2 °F - 35.6 °F 62% 29.69 in 10.0 mi Calm Calm - N/A   Overcast
7:35 PM 48.2 °F - 37.4 °F 66% 29.68 in 10.0 mi Calm Calm - N/A   Overcast
7:55 PM 46.4 °F - 37.4 °F 71% 29.68 in 10.0 mi Calm Calm - N/A   Overcast
8:15 PM 46.4 °F - 37.4 °F 71% 29.69 in 10.0 mi Calm Calm - N/A   Overcast
8:35 PM 46.4 °F 43.5 °F 37.4 °F 71% 29.69 in 10.0 mi South 5.8 mph - N/A   Overcast
9:15 PM 46.4 °F - 37.4 °F 71% 29.69 in 10.0 mi Calm Calm - N/A   Overcast
9:35 PM 46.4 °F - 37.4 °F 71% 29.69 in 10.0 mi Calm Calm - N/A   Overcast
9:55 PM 46.4 °F - 37.4 °F 71% 29.70 in 10.0 mi Calm Calm - N/A   Overcast
10:15 PM 46.4 °F - 37.4 °F 71% 29.70 in 10.0 mi Calm Calm - N/A   Overcast
10:35 PM 46.4 °F 45.2 °F 37.4 °F 71% 29.69 in 10.0 mi North 3.5 mph - N/A   Overcast
10:55 PM 46.4 °F 45.2 °F 37.4 °F 71% 29.69 in 10.0 mi NNE 3.5 mph - N/A   Overcast
11:35 PM 44.6 °F - 37.4 °F 76% 29.67 in 10.0 mi Calm Calm - N/A   Overcast
11:55 PM 44.6 °F - 37.4 °F 76% 29.66 in 10.0 mi Calm Calm - N/A   Overcast